Snowfall_Accumulation
0.0 0.0 0.0 0.0 0.0 0.0 0.0 0.0 0.0 nan nan nan nan nan nan nan nan nan nan nan nan nan nan nan nan nan nan
0.0 0.0 0.0 0.0 0.0 0.0 0.0 0.0 0.0 nan nan nan nan nan nan nan nan nan nan nan nan nan nan nan nan nan nan
0.0 0.0 0.0 0.0 0.0 0.0 0.0 0.0 0.0 nan nan nan nan nan nan nan nan nan nan nan nan nan nan nan nan nan nan
0.0 0.0 0.0 0.0 0.0 0.0 0.0 0.0 0.0 0.0 nan nan nan nan nan nan nan nan nan nan nan nan nan nan nan nan nan
0.0 0.0 0.0 0.0 0.0 0.0 0.0 0.0 0.0 0.0 0.0 0.0 0.0 0.0 0.0 nan nan nan nan nan nan nan nan nan nan nan nan
0.0 0.0 0.0 0.0 0.0 0.0 0.0 0.0 0.0 0.0 0.0 0.0 0.0 0.0 0.0 0.0 nan nan nan nan nan nan nan nan nan nan nan
0.0 0.0 0.0 0.0 0.0 0.0 0.0 0.0 0.0 0.0 0.0 0.0 0.0 0.0 0.0 0.0 nan nan nan nan nan nan nan nan nan nan nan
0.0 0.0 0.0 0.0 0.0 0.0 0.0 0.0 0.1 0.1 0.0 1.7 0.2 0.2 0.1 0.0 nan nan nan nan nan nan nan nan nan nan nan
nan nan nan nan nan 0.0 1.2 1.7 0.3 0.4 0.4 0.6 1.1 1.3 1.0 0.4 0.1 nan nan nan nan nan nan nan nan nan 0.0
0.0 0.0 nan nan nan 0.0 0.8 1.7 3.8 2.8 1.6 1.5 1.6 1.5 1.7 1.0 0.8 0.2 0.0 nan nan nan nan nan nan 0.0 0.0
0.0 0.0 0.0 0.1 0.0 0.2 0.2 1.5 3.0 4.5 1.5 1.6 4.6 2.5 2.0 2.1 0.5 0.1 0.0 0.0 0.0 0.0 nan nan nan 0.0 0.0
0.2 0.6 1.6 2.1 2.2 1.7 0.7 1.1 1.0 1.0 1.2 3.9 10.1 5.7 6.9 2.5 1.0 0.0 0.0 0.0 0.0 0.0 0.0 nan nan nan nan
0.7 2.4 2.9 3.6 3.0 3.6 2.9 2.7 4.3 2.0 2.1 3.9 6.6 5.5 4.9 4.0 2.6 0.8 0.0 0.0 0.0 0.0 0.0 0.0 0.0 0.0 0.0
0.5 1.2 2.2 5.5 4.7 4.7 5.8 6.2 6.1 5.8 3.7 4.3 3.2 4.0 6.4 3.1 2.3 1.0 0.8 0.8 0.0 0.0 0.0 0.0 0.0 0.0 0.0
1.2 1.7 2.3 4.4 5.2 5.5 6.6 6.5 7.4 6.4 5.3 3.8 1.4 1.7 3.2 3.6 4.2 1.2 0.0 0.0 0.0 0.0 0.0 0.0 0.0 0.0 0.0
2.3 3.1 4.5 6.0 7.1 8.0 7.9 6.9 6.5 4.4 4.5 4.6 6.0 7.0 6.4 3.9 3.3 0.4 0.0 0.0 0.0 0.0 0.0 0.0 0.0 0.0 0.0
5.3 5.7 6.8 7.6 8.7 7.6 7.6 5.4 4.7 4.4 6.6 8.3 11.1 10.9 9.9 8.1 2.0 nan 0.0 0.0 0.0 0.0 0.0 0.0 0.0 0.0 0.0
Water_Equivalent
0.00 0.00 0.00 0.00 0.00 0.00 0.00 0.00 0.00 nan nan nan nan nan nan nan nan nan nan nan nan nan nan nan nan nan nan
0.00 0.00 0.00 0.00 0.00 0.00 0.00 0.00 0.00 nan nan nan nan nan nan nan nan nan nan nan nan nan nan nan nan nan nan
0.00 0.00 0.00 0.00 0.00 0.00 0.00 0.00 0.00 nan nan nan nan nan nan nan nan nan nan nan nan nan nan nan nan nan nan
0.00 0.00 0.00 0.00 0.00 0.00 0.00 0.00 0.00 0.00 nan nan nan nan nan nan nan nan nan nan nan nan nan nan nan nan nan
0.00 0.00 0.00 0.00 0.00 0.00 0.00 0.00 0.00 0.00 0.00 0.00 0.00 0.00 0.00 nan nan nan nan nan nan nan nan nan nan nan nan
0.00 0.00 0.00 0.00 0.00 0.00 0.00 0.00 0.00 0.00 0.00 0.00 0.00 0.00 0.00 0.00 nan nan nan nan nan nan nan nan nan nan nan
0.00 0.00 0.00 0.00 0.00 0.00 0.00 0.00 0.00 0.00 0.00 0.00 0.00 0.00 0.00 0.00 nan nan nan nan nan nan nan nan nan nan nan
0.00 0.00 0.00 0.00 0.00 0.00 0.00 0.01 0.04 0.02 0.00 0.26 0.06 0.06 0.02 0.00 nan nan nan nan nan nan nan nan nan nan nan
nan nan nan nan nan 0.00 0.21 0.29 0.13 0.15 0.15 0.12 0.17 0.21 0.20 0.11 0.03 nan nan nan nan nan nan nan nan nan 0.00
0.00 0.00 nan nan nan 0.00 0.14 0.29 0.55 0.41 0.25 0.20 0.23 0.24 0.28 0.19 0.16 0.05 0.00 nan nan nan nan nan nan 0.00 0.00
0.00 0.01 0.02 0.05 0.01 0.03 0.04 0.25 0.46 0.67 0.24 0.24 0.58 0.35 0.32 0.28 0.08 0.02 0.00 0.00 0.00 0.00 nan nan nan 0.00 0.00
0.10 0.22 0.36 0.44 0.49 0.40 0.16 0.20 0.16 0.16 0.20 0.58 1.13 0.69 0.77 0.29 0.11 0.00 0.00 0.00 0.00 0.00 0.00 nan nan nan nan
0.30 0.61 0.65 0.74 0.59 0.55 0.45 0.45 0.64 0.38 0.39 0.59 0.83 0.66 0.53 0.40 0.27 0.09 0.00 0.00 0.00 0.00 0.00 0.00 0.00 0.00 0.00
0.13 0.28 0.46 0.83 0.67 0.67 0.79 0.86 0.84 0.78 0.54 0.58 0.38 0.41 0.65 0.31 0.23 0.11 0.10 0.09 0.00 0.00 0.00 0.00 0.00 0.00 0.00
0.24 0.31 0.43 0.67 0.69 0.76 0.88 0.85 0.89 0.76 0.62 0.47 0.17 0.20 0.32 0.36 0.42 0.12 0.00 0.00 0.00 0.00 0.00 0.00 0.00 0.00 0.00
0.43 0.52 0.62 0.75 0.89 1.06 1.04 0.85 0.76 0.52 0.53 0.54 0.62 0.72 0.69 0.47 0.33 0.04 0.00 0.00 0.00 0.00 0.00 0.00 0.00 0.00 0.00
0.79 0.80 0.84 0.93 1.05 0.91 0.85 0.64 0.54 0.53 0.77 0.87 1.13 1.11 1.00 0.82 0.25 nan 0.00 0.00 0.00 0.00 0.00 0.00 0.00 0.00 0.00
SL_Ratio
nan nan nan nan nan nan nan nan nan nan nan nan nan nan nan nan nan nan nan nan nan nan nan nan nan nan nan
nan nan nan nan nan nan nan nan nan nan nan nan nan nan nan nan nan nan nan nan nan nan nan nan nan nan nan
nan nan nan nan nan nan nan nan nan nan nan nan nan nan nan nan nan nan nan nan nan nan nan nan nan nan nan
nan nan nan nan nan nan nan nan nan nan nan nan nan nan nan nan nan nan nan nan nan nan nan nan nan nan nan
nan nan nan nan nan nan nan nan nan nan nan nan nan nan nan nan nan nan nan nan nan nan nan nan nan nan nan
nan nan nan nan nan nan nan nan nan nan nan nan nan nan nan nan nan nan nan nan nan nan nan nan nan nan nan
nan nan nan nan nan nan nan nan nan nan nan 2.5 2.5 nan nan nan nan nan nan nan nan nan nan nan nan nan nan
nan nan nan nan nan nan nan 2.4 2.5 2.5 nan 6.4 2.5 2.5 2.5 nan nan nan nan nan nan nan nan nan nan nan nan
nan nan nan nan nan nan 5.9 6.1 2.5 2.5 2.5 5.3 6.1 6.5 5.1 3.6 2.9 nan nan nan nan nan nan nan nan nan nan
6.0 nan nan nan nan nan 5.9 6.0 6.9 6.8 6.3 7.1 7.1 6.4 6.0 5.1 4.8 4.7 5.0 nan nan nan nan nan nan nan nan
nan 2.6 2.5 2.5 2.5 5.8 5.9 5.8 6.5 6.7 6.4 6.9 7.9 7.0 6.3 7.6 6.5 6.8 nan nan nan nan nan nan nan nan nan
2.5 2.5 4.4 4.8 4.5 4.4 4.3 5.2 6.0 6.5 5.9 6.8 8.9 8.3 9.0 8.5 8.6 nan nan nan nan nan nan nan nan nan nan
2.5 3.9 4.5 4.9 5.2 6.6 6.4 6.1 6.7 5.4 5.4 6.7 7.9 8.4 9.2 9.8 9.9 8.7 nan nan nan nan nan nan nan nan nan
3.8 4.2 4.9 6.6 7.0 7.0 7.4 7.2 7.3 7.4 6.8 7.6 8.4 9.7 9.9 9.9 9.8 9.5 8.3 8.6 nan nan nan nan nan nan nan
5.0 5.7 5.3 6.5 7.5 7.2 7.5 7.6 8.3 8.3 8.6 8.1 8.2 8.6 9.9 9.9 9.9 9.9 nan nan nan nan nan nan nan nan nan
5.4 6.0 7.2 7.9 8.0 7.5 7.6 8.1 8.6 8.5 8.6 8.5 9.7 9.8 9.3 8.3 9.9 10.0 nan nan nan nan nan nan nan nan nan
6.7 7.2 8.1 8.1 8.2 8.3 8.9 8.5 8.5 8.4 8.7 9.5 9.8 9.8 9.9 9.9 8.2 nan nan nan nan nan nan nan nan nan nan